Time,TemperatureF,DewpointF,PressureIn,WindDirection,WindDirectionDegrees,WindSpeedMPH,WindSpeedGustMPH,Humidity,HourlyPrecipIn,Conditions,Clouds,dailyrainin,SoftwareType,DateUTC
2013-05-25 00:01:00,45.4,38.3,30.05,NNE,22,8.0,9.0,76,0.00,,,0.10,Wunderground v.1.15,2013-05-25 04:01:00,
2013-05-25 00:02:00,45.4,38.3,30.05,NNE,12,8.0,9.0,76,0.00,,,0.10,Wunderground v.1.15,2013-05-25 04:02:00,
2013-05-25 00:03:00,45.4,38.3,30.05,NNE,30,8.0,9.0,76,0.00,,,0.10,Wunderground v.1.15,2013-05-25 04:03:00,
2013-05-25 00:04:00,45.4,38.3,30.05,NNE,12,8.0,9.0,76,0.00,,,0.10,Wunderground v.1.15,2013-05-25 04:04:00,
2013-05-25 00:05:00,45.4,38.3,30.05,North,5,8.0,9.0,76,0.00,,,0.10,Wunderground v.1.15,2013-05-25 04:05:00,
2013-05-25 00:10:00,45.5,38.0,30.05,NNE,22,7.0,7.0,75,0.00,,,0.10,Wunderground v.1.15,2013-05-25 04:10:00,
2013-05-25 00:15:00,45.5,38.0,30.05,North,5,8.0,10.0,75,0.00,,,0.10,Wunderground v.1.15,2013-05-25 04:15:00,
2013-05-25 00:21:00,45.6,37.8,30.04,North,355,8.0,8.0,74,0.00,,,0.10,Wunderground v.1.15,2013-05-25 04:21:00,
2013-05-25 00:27:00,45.6,37.4,30.04,NNE,15,8.0,15.0,73,0.00,,,0.10,Wunderground v.1.15,2013-05-25 04:27:00,
2013-05-25 00:33:00,45.7,37.5,30.04,NNE,23,9.0,11.0,73,0.00,,,0.10,Wunderground v.1.15,2013-05-25 04:33:00,
2013-05-25 00:38:00,45.7,37.2,30.04,NNE,22,9.0,11.0,72,0.00,,,0.00,Wunderground v.1.15,2013-05-25 04:38:00,
2013-05-25 00:43:00,45.7,37.5,30.04,NNE,32,9.0,9.0,73,0.00,,,0.00,Wunderground v.1.15,2013-05-25 04:43:00,
2013-05-25 00:48:00,45.7,37.2,30.03,NE,37,8.0,9.0,72,0.00,,,0.00,Wunderground v.1.15,2013-05-25 04:48:00,
2013-05-25 00:54:00,45.7,37.5,30.04,NE,46,7.0,14.0,73,0.00,,,0.00,Wunderground v.1.15,2013-05-25 04:54:00,
2013-05-25 00:59:00,45.7,37.2,30.04,NNE,23,8.0,14.0,72,0.00,,,0.00,Wunderground v.1.15,2013-05-25 04:59:00,
2013-05-25 01:05:00,45.7,37.2,30.03,NNW,347,8.0,11.0,72,0.00,,,0.00,Wunderground v.1.15,2013-05-25 05:05:00,
2013-05-25 01:10:00,45.7,37.2,30.03,NNW,334,8.0,9.0,72,0.00,,,0.00,Wunderground v.1.15,2013-05-25 05:10:00,
2013-05-25 01:16:00,45.8,37.3,30.03,North,355,9.0,12.0,72,0.00,,,0.00,Wunderground v.1.15,2013-05-25 05:16:00,
2013-05-25 01:22:00,45.8,36.9,30.03,North,5,10.0,10.0,71,0.00,,,0.00,Wunderground v.1.15,2013-05-25 05:22:00,
2013-05-25 01:28:00,45.8,37.3,30.03,NNE,19,9.0,12.0,72,0.00,,,0.00,Wunderground v.1.15,2013-05-25 05:28:00,
2013-05-25 01:33:00,45.8,37.3,30.03,NE,45,9.0,9.0,72,0.00,,,0.01,Wunderground v.1.15,2013-05-25 05:33:00,
2013-05-25 01:39:00,45.8,36.9,30.03,NNE,27,9.0,13.0,71,0.00,,,0.01,Wunderground v.1.15,2013-05-25 05:39:00,
2013-05-25 01:44:00,45.7,37.2,30.03,NNE,13,9.0,12.0,72,0.00,,,0.01,Wunderground v.1.15,2013-05-25 05:44:00,
2013-05-25 01:51:00,45.7,37.2,30.03,NNE,17,8.0,9.0,72,0.00,,,0.01,Wunderground v.1.15,2013-05-25 05:51:00,
2013-05-25 01:56:00,45.8,36.9,30.03,NNE,23,8.0,10.0,71,0.00,,,0.01,Wunderground v.1.15,2013-05-25 05:56:00,
2013-05-25 02:01:00,45.8,36.6,30.02,North,5,9.0,9.0,70,0.00,,,0.01,Wunderground v.1.15,2013-05-25 06:01:00,
2013-05-25 02:07:00,45.8,36.9,30.03,NNE,19,9.0,13.0,71,0.00,,,0.01,Wunderground v.1.15,2013-05-25 06:07:00,
2013-05-25 02:13:00,45.8,36.9,30.02,NNE,20,9.0,12.0,71,0.00,,,0.01,Wunderground v.1.15,2013-05-25 06:13:00,
2013-05-25 02:19:00,45.7,36.5,30.02,NNE,30,8.0,12.0,70,0.00,,,0.01,Wunderground v.1.15,2013-05-25 06:19:00,
2013-05-25 02:24:00,45.5,36.6,30.02,NNE,15,9.0,12.0,71,0.00,,,0.01,Wunderground v.1.15,2013-05-25 06:24:00,
2013-05-25 02:32:00,45.4,36.5,30.02,NNE,24,9.0,10.0,71,0.00,,,0.01,Wunderground v.1.15,2013-05-25 06:32:00,
2013-05-25 02:37:00,45.2,36.4,30.02,NNE,13,9.0,14.0,71,0.00,,,0.01,Wunderground v.1.15,2013-05-25 06:37:00,
2013-05-25 02:42:00,45.2,36.4,30.02,North,5,9.0,9.0,71,0.00,,,0.01,Wunderground v.1.15,2013-05-25 06:42:00,
2013-05-25 02:48:00,45.1,36.6,30.02,NNE,24,9.0,11.0,72,0.00,,,0.01,Wunderground v.1.15,2013-05-25 06:48:00,
2013-05-25 02:54:00,45.1,36.6,30.02,North,355,9.0,9.0,72,0.00,,,0.01,Wunderground v.1.15,2013-05-25 06:54:00,
2013-05-25 02:59:00,45.0,36.5,30.02,NNW,347,9.0,12.0,72,0.00,,,0.01,Wunderground v.1.15,2013-05-25 06:59:00,
2013-05-25 03:05:00,45.0,36.2,30.02,North,360,10.0,12.0,71,0.00,,,0.01,Wunderground v.1.15,2013-05-25 07:05:00,
2013-05-25 03:10:00,44.9,36.4,30.02,North,5,10.0,10.0,72,0.00,,,0.01,Wunderground v.1.15,2013-05-25 07:10:00,
2013-05-25 03:16:00,45.0,36.5,30.02,NNE,32,11.0,15.0,72,0.00,,,0.01,Wunderground v.1.15,2013-05-25 07:16:00,
2013-05-25 03:21:00,44.9,36.1,30.02,North,360,11.0,11.0,71,0.00,,,0.01,Wunderground v.1.15,2013-05-25 07:21:00,
2013-05-25 03:27:00,44.9,36.1,30.02,North,9,11.0,15.0,71,0.00,,,0.01,Wunderground v.1.15,2013-05-25 07:27:00,
2013-05-25 03:33:00,44.9,36.1,30.02,North,360,11.0,11.0,71,0.00,,,0.01,Wunderground v.1.15,2013-05-25 07:33:00,
2013-05-25 03:38:00,44.9,36.4,30.02,North,9,11.0,14.0,72,0.00,,,0.01,Wunderground v.1.15,2013-05-25 07:38:00,
2013-05-25 03:44:00,44.7,36.6,30.02,North,11,11.0,18.0,73,0.00,,,0.01,Wunderground v.1.15,2013-05-25 07:44:00,
2013-05-25 03:49:00,44.7,36.2,30.02,NNE,13,11.0,18.0,72,0.00,,,0.01,Wunderground v.1.15,2013-05-25 07:49:00,
2013-05-25 03:54:00,44.6,36.1,30.03,NNE,21,10.0,11.0,72,0.00,,,0.01,Wunderground v.1.15,2013-05-25 07:54:00,
2013-05-25 03:59:00,44.6,36.5,30.03,North,360,9.0,11.0,73,0.00,,,0.01,Wunderground v.1.15,2013-05-25 07:59:00,
2013-05-25 04:05:00,44.5,36.4,30.03,North,5,9.0,14.0,73,0.00,,,0.01,Wunderground v.1.15,2013-05-25 08:05:00,
2013-05-25 04:11:00,44.5,36.4,30.03,NNW,347,9.0,10.0,73,0.00,,,0.01,Wunderground v.1.15,2013-05-25 08:11:00,
2013-05-25 04:17:00,44.4,36.3,30.03,NNW,333,10.0,14.0,73,0.00,,,0.01,Wunderground v.1.15,2013-05-25 08:17:00,
2013-05-25 04:22:00,44.3,36.5,30.03,North,350,9.0,9.0,74,0.00,,,0.01,Wunderground v.1.15,2013-05-25 08:22:00,
2013-05-25 04:28:00,44.2,36.4,30.03,North,350,9.0,15.0,74,0.00,,,0.01,Wunderground v.1.15,2013-05-25 08:28:00,
2013-05-25 04:33:00,44.1,36.3,30.02,NNE,15,9.0,11.0,74,0.00,,,0.01,Wunderground v.1.15,2013-05-25 08:33:00,
2013-05-25 04:38:00,44.1,36.3,30.03,North,5,10.0,12.0,74,0.00,,,0.01,Wunderground v.1.15,2013-05-25 08:38:00,
2013-05-25 04:44:00,44.0,36.6,30.03,North,5,10.0,11.0,75,0.00,,,0.01,Wunderground v.1.15,2013-05-25 08:44:00,
2013-05-25 04:49:00,43.9,36.5,30.03,NNW,348,9.0,16.0,75,0.00,,,0.01,Wunderground v.1.15,2013-05-25 08:49:00,
2013-05-25 04:55:00,43.7,36.6,30.03,North,355,8.0,10.0,76,0.00,,,0.01,Wunderground v.1.15,2013-05-25 08:55:00,
2013-05-25 05:01:00,43.6,36.2,30.03,NNW,337,8.0,13.0,75,0.00,,,0.01,Wunderground v.1.15,2013-05-25 09:01:00,
2013-05-25 05:06:00,43.6,36.2,30.03,NNE,22,8.0,18.0,75,0.00,,,0.01,Wunderground v.1.15,2013-05-25 09:06:00,
2013-05-25 05:12:00,43.5,36.4,30.03,NNE,17,8.0,8.0,76,0.00,,,0.01,Wunderground v.1.15,2013-05-25 09:12:00,
2013-05-25 05:18:00,43.5,36.4,30.03,NNE,14,8.0,9.0,76,0.00,,,0.01,Wunderground v.1.15,2013-05-25 09:18:00,
2013-05-25 05:24:00,43.5,36.4,30.03,NNE,17,9.0,14.0,76,0.00,,,0.01,Wunderground v.1.15,2013-05-25 09:24:00,
2013-05-25 05:32:00,43.4,36.3,30.03,NNE,15,9.0,11.0,76,0.00,,,0.01,Wunderground v.1.15,2013-05-25 09:32:00,
2013-05-25 05:37:00,43.4,36.3,30.03,North,355,9.0,11.0,76,0.00,,,0.01,Wunderground v.1.15,2013-05-25 09:37:00,
2013-05-25 05:43:00,43.4,36.3,30.04,NNW,346,9.0,9.0,76,0.00,,,0.01,Wunderground v.1.15,2013-05-25 09:43:00,
2013-05-25 05:49:00,43.4,36.3,30.04,NNW,328,9.0,13.0,76,0.00,,,0.01,Wunderground v.1.15,2013-05-25 09:49:00,
2013-05-25 05:54:00,43.4,36.3,30.04,North,9,9.0,14.0,76,0.00,,,0.01,Wunderground v.1.15,2013-05-25 09:54:00,
2013-05-25 05:59:00,43.4,36.3,30.04,North,9,9.0,18.0,76,0.00,,,0.01,Wunderground v.1.15,2013-05-25 09:59:00,
2013-05-25 06:05:00,43.4,36.3,30.04,NNW,338,8.0,10.0,76,0.00,,,0.01,Wunderground v.1.15,2013-05-25 10:05:00,
2013-05-25 06:10:00,43.5,36.4,30.04,NNW,344,9.0,9.0,76,0.00,,,0.01,Wunderground v.1.15,2013-05-25 10:10:00,
2013-05-25 06:16:00,43.6,36.5,30.03,North,9,9.0,11.0,76,0.00,,,0.01,Wunderground v.1.15,2013-05-25 10:16:00,
2013-05-25 06:21:00,43.8,36.4,30.03,North,360,11.0,14.0,75,0.00,,,0.01,Wunderground v.1.15,2013-05-25 10:21:00,
2013-05-25 06:26:00,43.9,36.5,30.03,NNW,342,11.0,14.0,75,0.00,,,0.01,Wunderground v.1.15,2013-05-25 10:26:00,
2013-05-25 06:31:00,44.0,36.6,30.04,NNE,13,10.0,10.0,75,0.00,,,0.01,Wunderground v.1.15,2013-05-25 10:31:00,
2013-05-25 06:37:00,44.2,36.8,30.04,NNW,340,10.0,14.0,75,0.00,,,0.01,Wunderground v.1.15,2013-05-25 10:37:00,
2013-05-25 06:43:00,44.3,36.9,30.03,North,350,10.0,15.0,75,0.00,,,0.01,Wunderground v.1.15,2013-05-25 10:43:00,
2013-05-25 06:49:00,44.4,37.0,30.03,North,351,11.0,15.0,75,0.00,,,0.01,Wunderground v.1.15,2013-05-25 10:49:00,
2013-05-25 06:54:00,44.5,36.7,30.03,North,355,11.0,15.0,74,0.00,,,0.01,Wunderground v.1.15,2013-05-25 10:54:00,
2013-05-25 06:59:00,44.7,36.9,30.04,NNE,24,12.0,15.0,74,0.00,,,0.01,Wunderground v.1.15,2013-05-25 10:59:00,
2013-05-25 07:05:00,44.9,37.1,30.04,North,5,12.0,22.0,74,0.00,,,0.01,Wunderground v.1.15,2013-05-25 11:05:00,
2013-05-25 07:11:00,45.0,37.2,30.04,NNE,15,12.0,12.0,74,0.00,,,0.01,Wunderground v.1.15,2013-05-25 11:11:00,
2013-05-25 07:17:00,45.2,37.1,30.05,NNE,21,11.0,18.0,73,0.00,,,0.01,Wunderground v.1.15,2013-05-25 11:17:00,
2013-05-25 07:22:00,45.4,37.2,30.05,NNE,26,12.0,14.0,73,0.00,,,0.01,Wunderground v.1.15,2013-05-25 11:22:00,
2013-05-25 07:28:00,45.6,37.4,30.05,NNW,332,11.0,19.0,73,0.00,,,0.01,Wunderground v.1.15,2013-05-25 11:28:00,
2013-05-25 07:34:00,45.8,37.3,30.05,North,360,11.0,22.0,72,0.00,,,0.01,Wunderground v.1.15,2013-05-25 11:34:00,
2013-05-25 07:40:00,46.0,37.5,30.05,NNW,342,13.0,13.0,72,0.00,,,0.01,Wunderground v.1.15,2013-05-25 11:40:00,
2013-05-25 07:46:00,46.2,37.7,30.05,NNE,19,11.0,13.0,72,0.00,,,0.01,Wunderground v.1.15,2013-05-25 11:46:00,
2013-05-25 07:52:00,46.4,37.5,30.05,NNE,28,11.0,15.0,71,0.00,,,0.01,Wunderground v.1.15,2013-05-25 11:52:00,
2013-05-25 08:00:00,46.4,37.9,30.05,North,5,12.0,15.0,72,0.00,,,0.01,Wunderground v.1.15,2013-05-25 12:00:00,
2013-05-25 08:05:00,46.6,38.1,30.06,North,360,12.0,23.0,72,0.00,,,0.02,Wunderground v.1.15,2013-05-25 12:05:00,
2013-05-25 08:10:00,46.7,38.5,30.06,NNW,345,12.0,15.0,73,0.00,,,0.02,Wunderground v.1.15,2013-05-25 12:10:00,
2013-05-25 08:15:00,46.9,38.3,30.06,NNW,348,12.0,15.0,72,0.00,,,0.02,Wunderground v.1.15,2013-05-25 12:15:00,
2013-05-25 08:21:00,47.1,38.2,30.06,NNE,19,11.0,12.0,71,0.00,,,0.02,Wunderground v.1.15,2013-05-25 12:21:00,
2013-05-25 08:27:00,47.4,38.5,30.06,North,350,11.0,14.0,71,0.00,,,0.02,Wunderground v.1.15,2013-05-25 12:27:00,
2013-05-25 08:33:00,47.5,37.8,30.06,NNW,348,12.0,18.0,69,0.00,,,0.02,Wunderground v.1.15,2013-05-25 12:33:00,
2013-05-25 08:38:00,47.6,37.6,30.06,NNW,331,14.0,18.0,68,0.00,,,0.02,Wunderground v.1.15,2013-05-25 12:38:00,
2013-05-25 08:43:00,47.9,37.8,30.06,NNE,12,13.0,14.0,68,0.00,,,0.02,Wunderground v.1.15,2013-05-25 12:43:00,
2013-05-25 08:48:00,48.1,37.7,30.06,NNW,340,12.0,17.0,67,0.00,,,0.02,Wunderground v.1.15,2013-05-25 12:48:00,
2013-05-25 08:54:00,48.5,38.0,30.06,NNE,17,12.0,13.0,67,0.00,,,0.02,Wunderground v.1.15,2013-05-25 12:54:00,
2013-05-25 08:59:00,48.9,38.8,30.06,NNW,338,10.0,14.0,68,0.00,,,0.02,Wunderground v.1.15,2013-05-25 12:59:00,
2013-05-25 09:05:00,49.2,38.3,30.07,North,9,10.0,18.0,66,0.00,,,0.02,Wunderground v.1.15,2013-05-25 13:05:00,
2013-05-25 09:10:00,49.2,37.9,30.07,NNE,15,11.0,18.0,65,0.00,,,0.02,Wunderground v.1.15,2013-05-25 13:10:00,
2013-05-25 09:15:00,49.4,37.3,30.07,NE,36,12.0,19.0,63,0.00,,,0.02,Wunderground v.1.15,2013-05-25 13:15:00,
2013-05-25 09:23:00,49.6,37.5,30.06,NE,54,11.0,13.0,63,0.00,,,0.02,Wunderground v.1.15,2013-05-25 13:23:00,
2013-05-25 09:29:00,49.7,37.2,30.06,NW,318,12.0,16.0,62,0.00,,,0.02,Wunderground v.1.15,2013-05-25 13:29:00,
2013-05-25 09:34:00,49.8,37.7,30.06,North,5,13.0,17.0,63,0.00,,,0.02,Wunderground v.1.15,2013-05-25 13:34:00,
2013-05-25 09:42:00,50.1,37.6,30.06,NNE,22,13.0,14.0,62,0.00,,,0.02,Wunderground v.1.15,2013-05-25 13:42:00,
2013-05-25 09:47:00,50.2,36.8,30.06,NE,41,14.0,15.0,60,0.00,,,0.02,Wunderground v.1.15,2013-05-25 13:47:00,
2013-05-25 09:52:00,50.4,37.4,30.06,North,355,14.0,18.0,61,0.00,,,0.02,Wunderground v.1.15,2013-05-25 13:52:00,
2013-05-25 09:57:00,50.5,38.0,30.06,North,355,13.0,19.0,62,0.00,,,0.02,Wunderground v.1.15,2013-05-25 13:57:00,
2013-05-25 10:03:00,50.8,37.4,30.06,North,5,12.0,12.0,60,0.00,,,0.02,Wunderground v.1.15,2013-05-25 14:03:00,
2013-05-25 10:08:00,51.2,37.8,30.06,NNE,26,12.0,16.0,60,0.00,,,0.02,Wunderground v.1.15,2013-05-25 14:08:00,
2013-05-25 10:26:00,51.7,37.8,30.06,ENE,67,14.0,18.0,59,0.00,,,0.02,Wunderground v.1.15,2013-05-25 14:26:00,
2013-05-25 10:31:00,52.1,36.9,30.06,NE,53,15.0,21.0,56,0.00,,,0.02,Wunderground v.1.15,2013-05-25 14:31:00,
2013-05-25 10:37:00,52.3,38.8,30.06,North,355,14.0,21.0,60,0.00,,,0.02,Wunderground v.1.15,2013-05-25 14:37:00,
2013-05-25 10:42:00,52.0,37.2,30.06,NNW,348,14.0,14.0,57,0.00,,,0.02,Wunderground v.1.15,2013-05-25 14:42:00,
2013-05-25 10:48:00,52.1,37.3,30.06,NNW,338,14.0,16.0,57,0.00,,,0.02,Wunderground v.1.15,2013-05-25 14:48:00,
2013-05-25 11:02:00,52.2,36.5,30.06,NE,52,15.0,15.0,55,0.00,,,0.02,Wunderground v.1.15,2013-05-25 15:02:00,
2013-05-25 11:08:00,52.5,36.8,30.06,NE,41,15.0,17.0,55,0.00,,,0.02,Wunderground v.1.15,2013-05-25 15:08:00,
2013-05-25 11:13:00,52.9,37.2,30.06,NNE,26,14.0,20.0,55,0.00,,,0.02,Wunderground v.1.15,2013-05-25 15:13:00,
2013-05-25 11:19:00,53.1,36.9,30.06,NE,42,13.0,20.0,54,0.00,,,0.02,Wunderground v.1.15,2013-05-25 15:19:00,
2013-05-25 11:24:00,53.6,37.8,30.07,North,5,13.0,17.0,55,0.00,,,0.02,Wunderground v.1.15,2013-05-25 15:24:00,
2013-05-25 11:31:00,53.0,38.6,30.07,NNW,338,13.0,23.0,58,0.00,,,0.02,Wunderground v.1.15,2013-05-25 15:31:00,
2013-05-25 11:37:00,53.3,38.4,30.07,NNE,24,13.0,23.0,57,0.00,,,0.02,Wunderground v.1.15,2013-05-25 15:37:00,
2013-05-25 11:42:00,53.2,37.4,30.07,North,355,13.0,19.0,55,0.00,,,0.02,Wunderground v.1.15,2013-05-25 15:42:00,
2013-05-25 11:47:00,52.9,37.6,30.07,NNE,12,14.0,19.0,56,0.00,,,0.02,Wunderground v.1.15,2013-05-25 15:47:00,
2013-05-25 11:52:00,53.3,38.9,30.07,NNE,16,13.0,16.0,58,0.00,,,0.02,Wunderground v.1.15,2013-05-25 15:52:00,
2013-05-25 12:00:00,53.7,38.4,30.07,NNE,24,10.0,12.0,56,0.00,,,0.02,Wunderground v.1.15,2013-05-25 16:00:00,
2013-05-25 12:05:00,53.5,38.6,30.06,NNW,347,11.0,18.0,57,0.00,,,0.02,Wunderground v.1.15,2013-05-25 16:05:00,
2013-05-25 12:11:00,53.5,37.7,30.07,NE,34,12.0,16.0,55,0.00,,,0.02,Wunderground v.1.15,2013-05-25 16:11:00,
2013-05-25 12:17:00,54.0,37.7,30.06,NNE,27,13.0,18.0,54,0.00,,,0.02,Wunderground v.1.15,2013-05-25 16:17:00,
2013-05-25 12:23:00,55.1,38.3,30.06,NE,45,11.0,17.0,53,0.00,,,0.02,Wunderground v.1.15,2013-05-25 16:23:00,
2013-05-25 12:29:00,55.0,38.2,30.06,NNE,18,11.0,17.0,53,0.00,,,0.02,Wunderground v.1.15,2013-05-25 16:29:00,
2013-05-25 12:35:00,54.9,37.6,30.06,NE,48,12.0,21.0,52,0.00,,,0.02,Wunderground v.1.15,2013-05-25 16:35:00,
2013-05-25 12:40:00,54.7,38.4,30.06,NNE,30,13.0,13.0,54,0.00,,,0.02,Wunderground v.1.15,2013-05-25 16:40:00,
2013-05-25 12:45:00,54.5,37.7,30.06,North,5,12.0,16.0,53,0.00,,,0.02,Wunderground v.1.15,2013-05-25 16:45:00,
2013-05-25 12:51:00,54.2,37.9,30.06,North,355,11.0,11.0,54,0.00,,,0.02,Wunderground v.1.15,2013-05-25 16:51:00,
2013-05-25 12:56:00,54.8,39.8,30.06,North,355,10.0,14.0,57,0.00,,,0.02,Wunderground v.1.15,2013-05-25 16:56:00,
2013-05-25 13:01:00,55.1,38.7,30.06,NE,48,10.0,14.0,54,0.00,,,0.02,Wunderground v.1.15,2013-05-25 17:01:00,
2013-05-25 13:06:00,55.4,38.5,30.06,NNE,15,12.0,15.0,53,0.00,,,0.02,Wunderground v.1.15,2013-05-25 17:06:00,
2013-05-25 13:12:00,55.4,36.5,30.05,NE,34,13.0,15.0,49,0.00,,,0.02,Wunderground v.1.15,2013-05-25 17:12:00,
2013-05-25 13:18:00,55.6,37.2,30.05,NE,37,14.0,18.0,50,0.00,,,0.02,Wunderground v.1.15,2013-05-25 17:18:00,
2013-05-25 13:24:00,55.3,37.0,30.05,NE,44,13.0,19.0,50,0.00,,,0.02,Wunderground v.1.15,2013-05-25 17:24:00,
2013-05-25 13:29:00,55.0,37.2,30.05,NNE,26,13.0,24.0,51,0.00,,,0.02,Wunderground v.1.15,2013-05-25 17:29:00,
2013-05-25 13:35:00,55.9,37.5,30.05,North,5,13.0,19.0,50,0.00,,,0.02,Wunderground v.1.15,2013-05-25 17:35:00,
2013-05-25 13:41:00,56.7,39.3,30.05,NE,35,10.0,10.0,52,0.00,,,0.02,Wunderground v.1.15,2013-05-25 17:41:00,
2013-05-25 13:46:00,56.7,38.8,30.05,NNE,26,10.0,15.0,51,0.00,,,0.02,Wunderground v.1.15,2013-05-25 17:46:00,
2013-05-25 13:52:00,56.6,38.2,30.05,NNE,30,12.0,13.0,50,0.00,,,0.02,Wunderground v.1.15,2013-05-25 17:52:00,
2013-05-25 13:59:00,56.6,37.1,30.05,NNE,29,13.0,18.0,48,0.00,,,0.02,Wunderground v.1.15,2013-05-25 17:59:00,
2013-05-25 14:05:00,56.3,37.4,30.04,NNE,16,12.0,14.0,49,0.00,,,0.02,Wunderground v.1.15,2013-05-25 18:05:00,
2013-05-25 14:10:00,56.7,36.7,30.04,NNE,15,11.0,15.0,47,0.00,,,0.02,Wunderground v.1.15,2013-05-25 18:10:00,
2013-05-25 14:15:00,56.8,37.8,30.05,North,9,11.0,15.0,49,0.00,,,0.02,Wunderground v.1.15,2013-05-25 18:15:00,
2013-05-25 14:20:00,57.1,38.1,30.04,NNE,22,11.0,11.0,49,0.00,,,0.02,Wunderground v.1.15,2013-05-25 18:20:00,
2013-05-25 14:26:00,56.7,37.2,30.04,NE,36,11.0,11.0,48,0.00,,,0.02,Wunderground v.1.15,2013-05-25 18:26:00,
2013-05-25 14:32:00,56.9,37.4,30.04,NNE,29,10.0,12.0,48,0.00,,,0.02,Wunderground v.1.15,2013-05-25 18:32:00,
2013-05-25 14:37:00,57.5,37.9,30.04,NNE,14,11.0,16.0,48,0.00,,,0.02,Wunderground v.1.15,2013-05-25 18:37:00,
2013-05-25 14:42:00,57.3,36.7,30.04,NE,47,11.0,14.0,46,0.00,,,0.02,Wunderground v.1.15,2013-05-25 18:42:00,
2013-05-25 14:48:00,58.2,37.5,30.03,NE,53,11.0,19.0,46,0.00,,,0.02,Wunderground v.1.15,2013-05-25 18:48:00,
2013-05-25 14:54:00,58.3,36.5,30.04,NNE,22,12.0,18.0,44,0.00,,,0.02,Wunderground v.1.15,2013-05-25 18:54:00,
2013-05-25 14:59:00,57.8,36.6,30.03,NE,39,12.0,18.0,45,0.00,,,0.02,Wunderground v.1.15,2013-05-25 18:59:00,
2013-05-25 15:08:00,58.2,36.4,30.03,NE,46,12.0,18.0,44,0.00,,,0.02,Wunderground v.1.15,2013-05-25 19:08:00,
2013-05-25 15:13:00,58.2,36.4,30.02,NNE,24,12.0,12.0,44,0.00,,,0.02,Wunderground v.1.15,2013-05-25 19:13:00,
2013-05-25 15:19:00,59.3,37.4,30.03,NNE,15,10.0,14.0,44,0.00,,,0.02,Wunderground v.1.15,2013-05-25 19:19:00,
2013-05-25 15:25:00,59.8,37.8,30.03,NNE,24,11.0,15.0,44,0.00,,,0.02,Wunderground v.1.15,2013-05-25 19:25:00,
2013-05-25 15:31:00,59.6,37.1,30.03,NNE,18,11.0,13.0,43,0.00,,,0.02,Wunderground v.1.15,2013-05-25 19:31:00,
2013-05-25 15:37:00,58.7,36.8,30.03,NE,36,11.0,14.0,44,0.00,,,0.02,Wunderground v.1.15,2013-05-25 19:37:00,
2013-05-25 15:42:00,59.5,37.6,30.02,NNE,16,11.0,14.0,44,0.00,,,0.02,Wunderground v.1.15,2013-05-25 19:42:00,
2013-05-25 15:48:00,60.3,38.3,30.02,North,350,11.0,17.0,44,0.00,,,0.02,Wunderground v.1.15,2013-05-25 19:48:00,
2013-05-25 15:54:00,60.1,36.9,30.02,ENE,58,9.0,13.0,42,0.00,,,0.02,Wunderground v.1.15,2013-05-25 19:54:00,
2013-05-25 16:00:00,60.3,38.3,30.02,NNE,32,11.0,11.0,44,0.00,,,0.02,Wunderground v.1.15,2013-05-25 20:00:00,
2013-05-25 16:05:00,60.5,36.7,30.02,NNE,13,11.0,15.0,41,0.00,,,0.02,Wunderground v.1.15,2013-05-25 20:05:00,
2013-05-25 16:11:00,60.1,36.3,30.02,NE,53,12.0,12.0,41,0.00,,,0.02,Wunderground v.1.15,2013-05-25 20:11:00,
2013-05-25 16:16:00,60.2,36.4,30.02,NNE,18,12.0,14.0,41,0.00,,,0.02,Wunderground v.1.15,2013-05-25 20:16:00,
2013-05-25 16:21:00,60.5,36.7,30.02,North,350,10.0,10.0,41,0.00,,,0.02,Wunderground v.1.15,2013-05-25 20:21:00,
2013-05-25 16:27:00,60.1,35.7,30.01,NE,55,10.0,16.0,40,0.00,,,0.02,Wunderground v.1.15,2013-05-25 20:27:00,
2013-05-25 16:33:00,60.0,36.2,30.01,North,5,11.0,12.0,41,0.00,,,0.02,Wunderground v.1.15,2013-05-25 20:33:00,
2013-05-25 16:38:00,60.3,37.1,30.02,NNE,15,10.0,16.0,42,0.00,,,0.02,Wunderground v.1.15,2013-05-25 20:38:00,
2013-05-25 16:43:00,60.5,35.4,30.02,NNE,32,11.0,13.0,39,0.00,,,0.02,Wunderground v.1.15,2013-05-25 20:43:00,
2013-05-25 16:49:00,60.5,36.7,30.01,NNE,25,12.0,18.0,41,0.00,,,0.02,Wunderground v.1.15,2013-05-25 20:49:00,
2013-05-25 16:54:00,59.9,35.5,30.01,North,5,11.0,14.0,40,0.00,,,0.02,Wunderground v.1.15,2013-05-25 20:54:00,
2013-05-25 16:59:00,60.0,36.2,30.01,NE,41,10.0,14.0,41,0.00,,,0.02,Wunderground v.1.15,2013-05-25 20:59:00,
2013-05-25 17:05:00,60.1,35.7,30.01,NE,36,10.0,14.0,40,0.00,,,0.02,Wunderground v.1.15,2013-05-25 21:05:00,
2013-05-25 17:10:00,60.3,35.9,30.01,ENE,61,11.0,17.0,40,0.00,,,0.02,Wunderground v.1.15,2013-05-25 21:10:00,
2013-05-25 17:16:00,60.4,35.9,30.01,NNE,26,10.0,17.0,40,0.00,,,0.02,Wunderground v.1.15,2013-05-25 21:16:00,
2013-05-25 17:21:00,60.5,37.3,30.01,NNE,26,9.0,10.0,42,0.00,,,0.02,Wunderground v.1.15,2013-05-25 21:21:00,
2013-05-25 17:26:00,60.5,35.4,30.01,NNE,30,10.0,22.0,39,0.00,,,0.02,Wunderground v.1.15,2013-05-25 21:26:00,
2013-05-25 17:32:00,60.6,36.8,30.01,NNW,342,11.0,11.0,41,0.00,,,0.02,Wunderground v.1.15,2013-05-25 21:32:00,
2013-05-25 17:37:00,60.9,35.8,30.01,NNE,29,10.0,12.0,39,0.00,,,0.02,Wunderground v.1.15,2013-05-25 21:37:00,
2013-05-25 17:43:00,61.4,37.5,30.01,NNE,19,8.0,8.0,41,0.00,,,0.02,Wunderground v.1.15,2013-05-25 21:43:00,
2013-05-25 17:49:00,61.6,36.4,30.01,NE,36,8.0,12.0,39,0.00,,,0.02,Wunderground v.1.15,2013-05-25 21:49:00,
2013-05-25 17:54:00,61.6,35.7,30.01,NNE,16,9.0,14.0,38,0.00,,,0.02,Wunderground v.1.15,2013-05-25 21:54:00,
2013-05-25 17:59:00,61.2,36.7,30.01,NNE,26,11.0,16.0,40,0.00,,,0.02,Wunderground v.1.15,2013-05-25 21:59:00,
2013-05-25 18:05:00,61.1,35.9,30.01,NNE,28,11.0,17.0,39,0.00,,,0.02,Wunderground v.1.15,2013-05-25 22:05:00,
2013-05-25 18:11:00,60.7,36.2,30.01,North,360,11.0,11.0,40,0.00,,,0.02,Wunderground v.1.15,2013-05-25 22:11:00,
2013-05-25 18:17:00,60.5,36.7,30.01,NNE,20,10.0,16.0,41,0.00,,,0.02,Wunderground v.1.15,2013-05-25 22:17:00,
2013-05-25 18:22:00,60.8,35.7,30.01,NE,35,8.0,9.0,39,0.00,,,0.02,Wunderground v.1.15,2013-05-25 22:22:00,
2013-05-25 18:28:00,61.1,35.9,30.01,NNW,336,8.0,14.0,39,0.00,,,0.02,Wunderground v.1.15,2013-05-25 22:28:00,
2013-05-25 18:33:00,61.0,34.5,30.02,NNE,28,8.0,8.0,37,0.00,,,0.02,Wunderground v.1.15,2013-05-25 22:33:00,
2013-05-25 18:38:00,61.1,34.6,30.02,North,360,8.0,12.0,37,0.00,,,0.02,Wunderground v.1.15,2013-05-25 22:38:00,
2013-05-25 18:43:00,61.2,34.7,30.02,NNE,19,9.0,9.0,37,0.00,,,0.02,Wunderground v.1.15,2013-05-25 22:43:00,
2013-05-25 18:49:00,61.2,36.0,30.02,NNE,30,8.0,10.0,39,0.00,,,0.02,Wunderground v.1.15,2013-05-25 22:49:00,
2013-05-25 18:55:00,61.1,33.9,30.02,NNE,21,8.0,13.0,36,0.00,,,0.02,Wunderground v.1.15,2013-05-25 22:55:00,
2013-05-25 19:01:00,60.9,34.4,30.02,NNE,16,8.0,8.0,37,0.00,,,0.02,Wunderground v.1.15,2013-05-25 23:01:00,
2013-05-25 19:07:00,61.0,34.5,30.02,NE,54,6.0,9.0,37,0.00,,,0.02,Wunderground v.1.15,2013-05-25 23:07:00,
2013-05-25 19:12:00,61.0,33.8,30.02,NNE,13,7.0,10.0,36,0.00,,,0.02,Wunderground v.1.15,2013-05-25 23:12:00,
2013-05-25 19:18:00,60.9,34.4,30.02,North,360,7.0,11.0,37,0.00,,,0.02,Wunderground v.1.15,2013-05-25 23:18:00,
2013-05-25 19:23:00,60.8,34.3,30.02,NNE,33,7.0,10.0,37,0.00,,,0.02,Wunderground v.1.15,2013-05-25 23:23:00,
2013-05-25 19:28:00,60.7,34.3,30.02,NE,48,7.0,10.0,37,0.00,,,0.02,Wunderground v.1.15,2013-05-25 23:28:00,
2013-05-25 19:34:00,60.5,34.7,30.02,North,10,6.0,7.0,38,0.00,,,0.02,Wunderground v.1.15,2013-05-25 23:34:00,
2013-05-25 20:39:00,56.8,32.7,30.03,NNE,30,5.0,9.0,40,0.00,,,0.02,Wunderground v.1.15,2013-05-26 00:39:00,
2013-05-25 20:45:00,56.5,33.1,30.04,NNE,21,5.0,6.0,41,0.00,,,0.02,Wunderground v.1.15,2013-05-26 00:45:00,
2013-05-25 20:51:00,56.2,33.4,30.04,NNE,32,4.0,4.0,42,0.00,,,0.02,Wunderground v.1.15,2013-05-26 00:51:00,
2013-05-25 20:56:00,55.9,33.1,30.04,NNE,19,4.0,11.0,42,0.00,,,0.02,Wunderground v.1.15,2013-05-26 00:56:00,
2013-05-25 21:01:00,55.8,33.0,30.04,NE,46,5.0,7.0,42,0.00,,,0.02,Wunderground v.1.15,2013-05-26 01:01:00,
2013-05-25 21:07:00,55.8,33.0,30.04,NE,51,7.0,9.0,42,0.00,,,0.02,Wunderground v.1.15,2013-05-26 01:07:00,
2013-05-25 21:12:00,55.7,32.9,30.04,NNE,26,7.0,12.0,42,0.00,,,0.02,Wunderground v.1.15,2013-05-26 01:12:00,
2013-05-25 21:17:00,55.8,33.0,30.05,NE,48,7.0,12.0,42,0.00,,,0.02,Wunderground v.1.15,2013-05-26 01:17:00,
2013-05-25 21:23:00,55.6,32.8,30.05,NE,44,7.0,8.0,42,0.00,,,0.02,Wunderground v.1.15,2013-05-26 01:23:00,
2013-05-25 21:28:00,55.5,33.3,30.05,NE,49,6.0,9.0,43,0.00,,,0.02,Wunderground v.1.15,2013-05-26 01:28:00,
2013-05-25 21:34:00,55.3,33.2,30.05,ENE,61,6.0,8.0,43,0.00,,,0.02,Wunderground v.1.15,2013-05-26 01:34:00,
2013-05-25 21:40:00,55.2,33.6,30.06,NE,52,6.0,6.0,44,0.00,,,0.02,Wunderground v.1.15,2013-05-26 01:40:00,
2013-05-25 21:46:00,55.0,34.0,30.06,NE,52,6.0,7.0,45,0.00,,,0.02,Wunderground v.1.15,2013-05-26 01:46:00,
2013-05-25 21:52:00,54.6,34.2,30.06,ENE,63,7.0,8.0,46,0.00,,,0.02,Wunderground v.1.15,2013-05-26 01:52:00,
2013-05-25 21:57:00,54.4,34.6,30.06,ENE,68,7.0,9.0,47,0.00,,,0.02,Wunderground v.1.15,2013-05-26 01:57:00,
2013-05-25 22:02:00,54.2,34.9,30.06,ENE,71,6.0,7.0,48,0.00,,,0.02,Wunderground v.1.15,2013-05-26 02:02:00,
2013-05-25 22:08:00,53.9,35.2,30.07,ENE,66,5.0,7.0,49,0.00,,,0.02,Wunderground v.1.15,2013-05-26 02:08:00,
2013-05-25 22:14:00,53.6,34.9,30.07,ENE,60,4.0,5.0,49,0.00,,,0.02,Wunderground v.1.15,2013-05-26 02:14:00,
2013-05-25 22:20:00,53.4,34.7,30.07,NE,50,3.0,3.0,49,0.00,,,0.02,Wunderground v.1.15,2013-05-26 02:20:00,
2013-05-25 22:26:00,53.1,34.9,30.08,NE,50,2.0,3.0,50,0.00,,,0.02,Wunderground v.1.15,2013-05-26 02:26:00,
2013-05-25 22:32:00,52.8,35.2,30.08,NE,46,2.0,2.0,51,0.00,,,0.02,Wunderground v.1.15,2013-05-26 02:32:00,
2013-05-25 22:37:00,52.7,35.1,30.08,NE,38,1.0,2.0,51,0.00,,,0.02,Wunderground v.1.15,2013-05-26 02:37:00,
2013-05-25 22:43:00,52.5,35.4,30.08,NE,45,2.0,2.0,52,0.00,,,0.02,Wunderground v.1.15,2013-05-26 02:43:00,
2013-05-25 22:49:00,52.3,35.2,30.08,NE,41,2.0,4.0,52,0.00,,,0.02,Wunderground v.1.15,2013-05-26 02:49:00,
2013-05-25 22:54:00,52.2,35.1,30.08,NNE,26,2.0,6.0,52,0.00,,,0.02,Wunderground v.1.15,2013-05-26 02:54:00,
2013-05-25 22:59:00,52.1,35.0,30.08,NNE,26,2.0,6.0,52,0.00,,,0.02,Wunderground v.1.15,2013-05-26 02:59:00,
2013-05-25 23:05:00,52.0,35.9,30.08,NNE,15,2.0,3.0,54,0.00,,,0.02,Wunderground v.1.15,2013-05-26 03:05:00,
2013-05-25 23:11:00,51.8,35.7,30.09,NNE,15,2.0,2.0,54,0.00,,,0.02,Wunderground v.1.15,2013-05-26 03:11:00,
2013-05-25 23:17:00,51.6,35.9,30.09,North,355,2.0,4.0,55,0.00,,,0.02,Wunderground v.1.15,2013-05-26 03:17:00,
2013-05-25 23:23:00,51.5,35.4,30.09,NNW,343,4.0,6.0,54,0.00,,,0.02,Wunderground v.1.15,2013-05-26 03:23:00,
2013-05-25 23:28:00,51.5,35.4,30.09,NNE,19,4.0,6.0,54,0.00,,,0.02,Wunderground v.1.15,2013-05-26 03:28:00,
2013-05-25 23:34:00,51.6,35.0,30.09,NE,43,4.0,6.0,53,0.00,,,0.02,Wunderground v.1.15,2013-05-26 03:34:00,
2013-05-25 23:39:00,51.4,34.8,30.08,NE,36,4.0,6.0,53,0.00,,,0.02,Wunderground v.1.15,2013-05-26 03:39:00,
2013-05-25 23:45:00,51.2,34.6,30.09,NNE,27,5.0,8.0,53,0.00,,,0.02,Wunderground v.1.15,2013-05-26 03:45:00,
2013-05-25 23:50:00,51.0,34.5,30.08,NNE,26,4.0,4.0,53,0.00,,,0.02,Wunderground v.1.15,2013-05-26 03:50:00,
2013-05-25 23:56:00,51.0,34.5,30.09,NNE,12,5.0,6.0,53,0.00,,,0.02,Wunderground v.1.15,2013-05-26 03:56:00,